Year,Month,Day,Hour,Minute,Value (Times are PST for temperature in C)
2017,07,19,00,00,19.40
2017,07,19,00,01,19.40
2017,07,19,00,02,19.40
2017,07,19,00,03,19.40
2017,07,19,00,04,19.40
2017,07,19,00,05,19.50
2017,07,19,00,06,19.60
2017,07,19,00,07,19.70
2017,07,19,00,08,19.80
2017,07,19,00,09,19.90
2017,07,19,00,10,20.00
2017,07,19,00,11,20.10
2017,07,19,00,12,20.20
2017,07,19,00,13,20.40
2017,07,19,00,14,20.50
2017,07,19,00,15,20.50
2017,07,19,00,16,20.60
2017,07,19,00,17,20.60
2017,07,19,00,18,20.50
2017,07,19,00,19,20.50
2017,07,19,00,20,20.40
2017,07,19,00,21,20.30
2017,07,19,00,22,20.20
2017,07,19,00,23,20.10
2017,07,19,00,24,20.00
2017,07,19,00,25,19.90
2017,07,19,00,26,19.80
2017,07,19,00,27,19.70
2017,07,19,00,28,19.60
2017,07,19,00,29,19.50
2017,07,19,00,30,19.40
2017,07,19,00,31,19.30
2017,07,19,00,32,19.30
2017,07,19,00,33,19.20
2017,07,19,00,34,19.10
2017,07,19,00,35,19.00
2017,07,19,00,36,18.90
2017,07,19,00,37,18.80
2017,07,19,00,38,18.70
2017,07,19,00,39,18.60
2017,07,19,00,40,18.50
2017,07,19,00,41,18.30
2017,07,19,00,42,18.20
2017,07,19,00,43,18.20
2017,07,19,00,44,18.10
2017,07,19,00,45,18.00
2017,07,19,00,46,17.90
2017,07,19,00,47,17.80
2017,07,19,00,48,17.70
2017,07,19,00,49,17.70
2017,07,19,00,50,17.70
2017,07,19,00,51,17.60
2017,07,19,00,52,17.60
2017,07,19,00,53,17.50
2017,07,19,00,54,17.50
2017,07,19,00,55,17.50
2017,07,19,00,56,17.40
2017,07,19,00,57,17.40
2017,07,19,00,58,17.40
2017,07,19,00,59,17.40
2017,07,19,01,00,17.30
2017,07,19,01,01,17.30
2017,07,19,01,02,17.30
2017,07,19,01,03,17.30
2017,07,19,01,04,17.30
2017,07,19,01,05,17.30
2017,07,19,01,06,17.30
2017,07,19,01,07,17.30
2017,07,19,01,08,17.30
2017,07,19,01,09,17.30
2017,07,19,01,10,17.30
2017,07,19,01,11,17.20
2017,07,19,01,12,17.20
2017,07,19,01,13,17.20
2017,07,19,01,14,17.20
2017,07,19,01,15,17.20
2017,07,19,01,16,17.10
2017,07,19,01,17,17.10
2017,07,19,01,18,17.10
2017,07,19,01,19,17.10
2017,07,19,01,20,17.10
2017,07,19,01,21,17.00
2017,07,19,01,22,17.00
2017,07,19,01,23,16.90
2017,07,19,01,24,16.90
2017,07,19,01,25,16.90
2017,07,19,01,26,16.80
2017,07,19,01,27,16.80
2017,07,19,01,28,16.70
2017,07,19,01,29,16.70
2017,07,19,01,30,16.60
2017,07,19,01,31,16.60
2017,07,19,01,32,16.60
2017,07,19,01,33,16.50
2017,07,19,01,34,16.40
2017,07,19,01,35,16.40
2017,07,19,01,36,16.40
2017,07,19,01,37,16.30
2017,07,19,01,38,16.30
2017,07,19,01,39,16.20
2017,07,19,01,40,16.20
2017,07,19,01,41,16.20
2017,07,19,01,42,16.10
2017,07,19,01,43,16.10
2017,07,19,01,44,16.10
2017,07,19,01,45,16.10
2017,07,19,01,46,16.10
2017,07,19,01,47,16.00
2017,07,19,01,48,16.00
2017,07,19,01,49,16.00
2017,07,19,01,50,15.90
2017,07,19,01,51,15.90
2017,07,19,01,52,15.90
2017,07,19,01,53,15.90
2017,07,19,01,54,15.90
2017,07,19,01,55,15.90
2017,07,19,01,56,15.80
2017,07,19,01,57,15.80
2017,07,19,01,58,15.80
2017,07,19,01,59,15.80
2017,07,19,02,00,15.70
2017,07,19,02,01,15.70
2017,07,19,02,02,15.70
2017,07,19,02,03,15.70
2017,07,19,02,04,15.70
2017,07,19,02,05,15.70
2017,07,19,02,06,15.70
2017,07,19,02,07,15.70
2017,07,19,02,08,15.70
2017,07,19,02,09,15.80
2017,07,19,02,10,15.80
2017,07,19,02,11,15.80
2017,07,19,02,12,15.90
2017,07,19,02,13,15.90
2017,07,19,02,14,15.90
2017,07,19,02,15,15.90
2017,07,19,02,16,15.90
2017,07,19,02,17,15.90
2017,07,19,02,18,16.00
2017,07,19,02,19,16.00
2017,07,19,02,20,16.00
2017,07,19,02,21,16.10
2017,07,19,02,22,16.10
2017,07,19,02,23,16.10
2017,07,19,02,24,16.10
2017,07,19,02,25,16.10
2017,07,19,02,26,16.10
2017,07,19,02,27,16.10
2017,07,19,02,28,16.10
2017,07,19,02,29,16.10
2017,07,19,02,30,16.00
2017,07,19,02,31,16.00
2017,07,19,02,32,15.90
2017,07,19,02,33,15.90
2017,07,19,02,34,15.90
2017,07,19,02,35,15.90
2017,07,19,02,36,15.80
2017,07,19,02,37,15.80
2017,07,19,02,38,15.80
2017,07,19,02,39,15.70
2017,07,19,02,40,15.70
2017,07,19,02,41,15.70
2017,07,19,02,42,15.60
2017,07,19,02,43,15.60
2017,07,19,02,44,15.60
2017,07,19,02,45,15.60
2017,07,19,02,46,15.60
2017,07,19,02,47,15.70
2017,07,19,02,48,15.70
2017,07,19,02,49,15.70
2017,07,19,02,50,15.70
2017,07,19,02,51,15.70
2017,07,19,02,52,15.70
2017,07,19,02,53,15.60
2017,07,19,02,54,15.60
2017,07,19,02,55,15.60
2017,07,19,02,56,15.50
2017,07,19,02,57,15.50
2017,07,19,02,58,15.50
2017,07,19,02,59,15.50
2017,07,19,03,00,15.40
2017,07,19,03,01,15.40
2017,07,19,03,02,15.40
2017,07,19,03,03,15.40
2017,07,19,03,04,15.40
2017,07,19,03,05,15.40
2017,07,19,03,06,15.30
2017,07,19,03,07,15.30
2017,07,19,03,08,15.30
2017,07,19,03,09,15.30
2017,07,19,03,10,15.30
2017,07,19,03,11,15.20
2017,07,19,03,12,15.20
2017,07,19,03,13,15.20
2017,07,19,03,14,15.20
2017,07,19,03,15,15.10
2017,07,19,03,16,15.10
2017,07,19,03,17,15.10
2017,07,19,03,18,15.00
2017,07,19,03,19,15.00
2017,07,19,03,20,15.00
2017,07,19,03,21,15.00
2017,07,19,03,22,15.00
2017,07,19,03,23,15.00
2017,07,19,03,24,15.00
2017,07,19,03,25,15.00
2017,07,19,03,26,15.00
2017,07,19,03,27,15.00
2017,07,19,03,28,14.90
2017,07,19,03,29,14.80
2017,07,19,03,30,14.80
2017,07,19,03,31,14.70
2017,07,19,03,32,14.70
2017,07,19,03,33,14.60
2017,07,19,03,34,14.60
2017,07,19,03,35,14.50
2017,07,19,03,36,14.50
2017,07,19,03,37,14.50
2017,07,19,03,38,14.40
2017,07,19,03,39,14.40
2017,07,19,03,40,14.40
2017,07,19,03,41,14.30
2017,07,19,03,42,14.30
2017,07,19,03,43,14.30
2017,07,19,03,44,14.20
2017,07,19,03,45,14.20
2017,07,19,03,46,14.20
2017,07,19,03,47,14.20
2017,07,19,03,48,14.20
2017,07,19,03,49,14.10
2017,07,19,03,50,14.10
2017,07,19,03,51,14.10
2017,07,19,03,52,14.10
2017,07,19,03,53,14.10
2017,07,19,03,54,14.10
2017,07,19,03,55,14.10
2017,07,19,03,56,14.10
2017,07,19,03,57,14.10
2017,07,19,03,58,14.20
2017,07,19,03,59,14.20
2017,07,19,04,00,14.20
2017,07,19,04,01,14.30
2017,07,19,04,02,14.30
2017,07,19,04,03,14.40
2017,07,19,04,04,14.40
2017,07,19,04,05,14.50
2017,07,19,04,06,14.60
2017,07,19,04,07,14.70
2017,07,19,04,08,14.80
2017,07,19,04,09,14.90
2017,07,19,04,10,15.00
2017,07,19,04,11,15.00
2017,07,19,04,12,15.00
2017,07,19,04,13,15.20
2017,07,19,04,14,15.30
2017,07,19,04,15,15.40
2017,07,19,04,16,15.50
2017,07,19,04,17,15.50
2017,07,19,04,18,15.60
2017,07,19,04,19,15.70
2017,07,19,04,20,15.70
2017,07,19,04,21,15.80
2017,07,19,04,22,15.80
2017,07,19,04,23,15.80
2017,07,19,04,24,15.90
2017,07,19,04,25,15.90
2017,07,19,04,26,15.90
2017,07,19,04,27,15.90
2017,07,19,04,28,15.90
2017,07,19,04,29,15.90
2017,07,19,04,30,15.90
2017,07,19,04,31,15.90
2017,07,19,04,32,15.90
2017,07,19,04,33,15.90
2017,07,19,04,34,15.90
2017,07,19,04,35,15.80
2017,07,19,04,36,15.60
2017,07,19,04,37,15.50
2017,07,19,04,38,15.30
2017,07,19,04,39,15.10
2017,07,19,04,40,15.00
2017,07,19,04,41,15.00
2017,07,19,04,42,14.80
2017,07,19,04,43,14.70
2017,07,19,04,44,14.60
2017,07,19,04,45,14.50
2017,07,19,04,46,14.40
2017,07,19,04,47,14.30
2017,07,19,04,48,14.20
2017,07,19,04,49,14.10
2017,07,19,04,50,14.00
2017,07,19,04,51,14.00
2017,07,19,04,52,13.90
2017,07,19,04,53,13.80
2017,07,19,04,54,13.80
2017,07,19,04,55,13.70
2017,07,19,04,56,13.70
2017,07,19,04,57,13.70
2017,07,19,04,58,13.60
2017,07,19,04,59,13.60
2017,07,19,05,00,13.60
2017,07,19,05,01,13.60
2017,07,19,05,02,13.50
2017,07,19,05,03,13.50
2017,07,19,05,04,13.50
2017,07,19,05,05,13.50
2017,07,19,05,06,13.40
2017,07,19,05,07,13.40
2017,07,19,05,08,13.40
2017,07,19,05,09,13.40
2017,07,19,05,10,13.30
2017,07,19,05,11,13.30
2017,07,19,05,12,13.30
2017,07,19,05,13,13.30
2017,07,19,05,14,13.30
2017,07,19,05,15,13.30
2017,07,19,05,16,13.30
2017,07,19,05,17,13.30
2017,07,19,05,18,13.30
2017,07,19,05,19,13.20
2017,07,19,05,20,13.30
2017,07,19,05,21,13.30
2017,07,19,05,22,13.20
2017,07,19,05,23,13.20
2017,07,19,05,24,13.20
2017,07,19,05,25,13.20
2017,07,19,05,26,13.20
2017,07,19,05,27,13.20
2017,07,19,05,28,13.10
2017,07,19,05,29,13.10
2017,07,19,05,30,13.10
2017,07,19,05,31,13.10
2017,07,19,05,32,13.00
2017,07,19,05,33,13.00
2017,07,19,05,34,13.00
2017,07,19,05,35,12.90
2017,07,19,05,36,12.90
2017,07,19,05,37,12.90
2017,07,19,05,38,12.90
2017,07,19,05,39,12.90
2017,07,19,05,40,12.80
2017,07,19,05,41,12.80
2017,07,19,05,42,12.80
2017,07,19,05,43,12.80
2017,07,19,05,44,12.80
2017,07,19,05,45,12.70
2017,07,19,05,46,12.70
2017,07,19,05,47,12.70
2017,07,19,05,48,12.70
2017,07,19,05,49,12.70
2017,07,19,05,50,12.70
2017,07,19,05,51,12.70
2017,07,19,05,52,12.70
2017,07,19,05,53,12.70
2017,07,19,05,54,12.70
2017,07,19,05,55,12.60
2017,07,19,05,56,12.60
2017,07,19,05,57,12.60
2017,07,19,05,58,12.60
2017,07,19,05,59,12.60
2017,07,19,06,00,12.60
2017,07,19,06,01,12.60
2017,07,19,06,02,12.60
2017,07,19,06,03,12.60
2017,07,19,06,04,12.70
2017,07,19,06,05,12.70
2017,07,19,06,06,12.70
2017,07,19,06,07,12.70
2017,07,19,06,08,12.70
2017,07,19,06,09,12.70
2017,07,19,06,10,12.70
2017,07,19,06,11,12.70
2017,07,19,06,12,12.70
2017,07,19,06,13,12.70
2017,07,19,06,14,12.80
2017,07,19,06,15,12.80
2017,07,19,06,16,12.80
2017,07,19,06,17,12.80
2017,07,19,06,18,12.80
2017,07,19,06,19,12.80
2017,07,19,06,20,12.90
2017,07,19,06,21,12.90
2017,07,19,06,22,12.90
2017,07,19,06,23,12.90
2017,07,19,06,24,13.00
2017,07,19,06,25,13.00
2017,07,19,06,26,13.10
2017,07,19,06,27,13.10
2017,07,19,06,28,13.10
2017,07,19,06,29,13.10
2017,07,19,06,30,13.10
2017,07,19,06,31,13.20
2017,07,19,06,32,13.20
2017,07,19,06,33,13.20
2017,07,19,06,34,13.30
2017,07,19,06,35,13.30
2017,07,19,06,36,13.30
2017,07,19,06,37,13.30
2017,07,19,06,38,13.40
2017,07,19,06,39,13.40
2017,07,19,06,40,13.40
2017,07,19,06,41,13.50
2017,07,19,06,42,13.50
2017,07,19,06,43,13.60
2017,07,19,06,44,13.60
2017,07,19,06,45,13.60
2017,07,19,06,46,13.70
2017,07,19,06,47,13.70
2017,07,19,06,48,13.80
2017,07,19,06,49,13.80
2017,07,19,06,50,13.80
2017,07,19,06,51,13.80
2017,07,19,06,52,13.90
2017,07,19,06,53,13.90
2017,07,19,06,54,13.90
2017,07,19,06,55,14.00
2017,07,19,06,56,14.00
2017,07,19,06,57,14.10
2017,07,19,06,58,14.10
2017,07,19,06,59,14.20
2017,07,19,07,00,14.30
2017,07,19,07,01,14.30
2017,07,19,07,02,14.40
2017,07,19,07,03,14.40
2017,07,19,07,04,14.50
2017,07,19,07,05,14.50
2017,07,19,07,06,14.60
2017,07,19,07,07,14.70
2017,07,19,07,08,14.80
2017,07,19,07,09,14.90
2017,07,19,07,10,15.00
2017,07,19,07,11,15.00
2017,07,19,07,12,15.20
2017,07,19,07,13,15.30
2017,07,19,07,14,15.50
2017,07,19,07,15,15.70
2017,07,19,07,16,15.80
2017,07,19,07,17,16.00
2017,07,19,07,18,16.10
2017,07,19,07,19,16.20
2017,07,19,07,20,16.30
2017,07,19,07,21,16.40
2017,07,19,07,22,16.50
2017,07,19,07,23,16.50
2017,07,19,07,24,16.70
2017,07,19,07,25,16.80
2017,07,19,07,26,16.90
2017,07,19,07,27,17.00
2017,07,19,07,28,17.10
2017,07,19,07,29,17.20
2017,07,19,07,30,17.30
2017,07,19,07,31,17.40
2017,07,19,07,32,17.60
2017,07,19,07,33,17.70
2017,07,19,07,34,17.80
2017,07,19,07,35,17.90
2017,07,19,07,36,18.00
2017,07,19,07,37,18.20
2017,07,19,07,38,18.30
2017,07,19,07,39,18.50
2017,07,19,07,40,18.60
2017,07,19,07,41,18.80
2017,07,19,07,42,19.00
2017,07,19,07,43,19.10
2017,07,19,07,44,19.30
2017,07,19,07,45,19.40
2017,07,19,07,46,19.50
2017,07,19,07,47,19.60
2017,07,19,07,48,19.70
2017,07,19,07,49,19.80
2017,07,19,07,50,19.90
2017,07,19,07,51,20.00
2017,07,19,07,52,20.10
2017,07,19,07,53,20.20
2017,07,19,07,54,20.30
2017,07,19,07,55,20.40
2017,07,19,07,56,20.40
2017,07,19,07,57,20.40
2017,07,19,07,58,20.40
2017,07,19,07,59,20.40
2017,07,19,08,00,20.30
2017,07,19,08,01,20.30
2017,07,19,08,02,20.20
2017,07,19,08,03,20.20
2017,07,19,08,04,20.30
2017,07,19,08,05,20.40
2017,07,19,08,06,20.40
2017,07,19,08,07,20.50
2017,07,19,08,08,20.50
2017,07,19,08,09,20.50
2017,07,19,08,10,20.40
2017,07,19,08,11,20.40
2017,07,19,08,12,20.30
2017,07,19,08,13,20.30
2017,07,19,08,14,20.30
2017,07,19,08,15,20.30
2017,07,19,08,16,20.30
2017,07,19,08,17,20.30
2017,07,19,08,18,20.30
2017,07,19,08,19,20.30
2017,07,19,08,20,20.30
2017,07,19,08,21,20.30
2017,07,19,08,22,20.20
2017,07,19,08,23,20.20
2017,07,19,08,24,20.20
2017,07,19,08,25,20.10
2017,07,19,08,26,20.10
2017,07,19,08,27,20.00
2017,07,19,08,28,19.90
2017,07,19,08,29,19.90
2017,07,19,08,30,19.80
2017,07,19,08,31,19.70
2017,07,19,08,32,19.60
2017,07,19,08,33,19.50
2017,07,19,08,34,19.40
2017,07,19,08,35,19.40
2017,07,19,08,36,19.40
2017,07,19,08,37,19.40
2017,07,19,08,38,19.30
2017,07,19,08,39,19.30
2017,07,19,08,40,19.30
2017,07,19,08,41,19.30
2017,07,19,08,42,19.30
2017,07,19,08,43,19.20
2017,07,19,08,44,19.30
2017,07,19,08,45,19.30
2017,07,19,08,46,19.30
2017,07,19,08,47,19.30
2017,07,19,08,48,19.30
2017,07,19,08,49,19.30
2017,07,19,08,50,19.30
2017,07,19,08,51,19.30
2017,07,19,08,52,19.30
2017,07,19,08,53,19.30
2017,07,19,08,54,19.30
2017,07,19,08,55,19.20
2017,07,19,08,56,19.20
2017,07,19,08,57,19.20
2017,07,19,08,58,19.20
2017,07,19,08,59,19.30
2017,07,19,09,00,19.30
2017,07,19,09,01,19.40
2017,07,19,09,02,19.40
2017,07,19,09,03,19.40
2017,07,19,09,04,19.40
2017,07,19,09,05,19.40
2017,07,19,09,06,19.40
2017,07,19,09,07,19.40
2017,07,19,09,08,19.40
2017,07,19,09,09,19.40
2017,07,19,09,10,19.40
2017,07,19,09,11,19.30
2017,07,19,09,12,19.30
2017,07,19,09,13,19.30
2017,07,19,09,14,19.30
2017,07,19,09,15,19.30
2017,07,19,09,16,19.30
2017,07,19,09,17,19.30
2017,07,19,09,18,19.30
2017,07,19,09,19,19.30
2017,07,19,09,20,19.20
2017,07,19,09,21,19.20
2017,07,19,09,22,19.20
2017,07,19,09,23,19.20
2017,07,19,09,24,19.20
2017,07,19,09,25,19.10
2017,07,19,09,26,19.10
2017,07,19,09,27,19.10
2017,07,19,09,28,19.10
2017,07,19,09,29,19.10
2017,07,19,09,30,19.10
2017,07,19,09,31,19.10
2017,07,19,09,32,19.10
2017,07,19,09,33,19.10
2017,07,19,09,34,19.10
2017,07,19,09,35,19.10
2017,07,19,09,36,19.10
2017,07,19,09,37,19.20
2017,07,19,09,38,19.20
2017,07,19,09,39,19.20
2017,07,19,09,40,19.20
2017,07,19,09,41,19.20
2017,07,19,09,42,19.10
2017,07,19,09,43,19.10
2017,07,19,09,44,19.10
2017,07,19,09,45,19.10
2017,07,19,09,46,19.10
2017,07,19,09,47,19.20
2017,07,19,09,48,19.20
2017,07,19,09,49,19.20
2017,07,19,09,50,19.20
2017,07,19,09,51,19.20
2017,07,19,09,52,19.20
2017,07,19,09,53,19.20
2017,07,19,09,54,19.20
2017,07,19,09,55,19.20
2017,07,19,09,56,19.20
2017,07,19,09,57,19.30
2017,07,19,09,58,19.30
2017,07,19,09,59,19.30
2017,07,19,10,00,19.30
2017,07,19,10,01,19.30
2017,07,19,10,02,19.30
2017,07,19,10,03,19.30
2017,07,19,10,04,19.30
2017,07,19,10,05,19.40
2017,07,19,10,06,19.40
2017,07,19,10,07,19.40
2017,07,19,10,08,19.40
2017,07,19,10,09,19.40
2017,07,19,10,10,19.40
2017,07,19,10,11,19.40
2017,07,19,10,12,19.30
2017,07,19,10,13,19.30
2017,07,19,10,14,19.40
2017,07,19,10,15,19.40
2017,07,19,10,16,19.50
2017,07,19,10,17,19.50
2017,07,19,10,18,19.60
2017,07,19,10,19,19.60
2017,07,19,10,20,19.60
2017,07,19,10,21,19.60
2017,07,19,10,22,19.60
2017,07,19,10,23,19.60
2017,07,19,10,24,19.50
2017,07,19,10,25,19.50
2017,07,19,10,26,19.40
2017,07,19,10,27,19.40
2017,07,19,10,28,19.40
2017,07,19,10,29,19.40
2017,07,19,10,30,19.50
2017,07,19,10,31,19.50
2017,07,19,10,32,19.60
2017,07,19,10,33,19.60
2017,07,19,10,34,19.60
2017,07,19,10,35,19.60
2017,07,19,10,36,19.60
2017,07,19,10,37,19.70
2017,07,19,10,38,19.70
2017,07,19,10,39,19.70
2017,07,19,10,40,19.70
2017,07,19,10,41,19.80
2017,07,19,10,42,19.80
2017,07,19,10,43,19.80
2017,07,19,10,44,19.90
2017,07,19,10,45,19.90
2017,07,19,10,46,20.00
2017,07,19,10,47,20.10
2017,07,19,10,48,20.10
2017,07,19,10,49,20.20
2017,07,19,10,50,20.20
2017,07,19,10,51,20.20
2017,07,19,10,52,20.20
2017,07,19,10,53,20.20
2017,07,19,10,54,20.20
2017,07,19,10,55,20.20
2017,07,19,10,56,20.20
2017,07,19,10,57,20.10
2017,07,19,10,58,20.10
2017,07,19,10,59,20.10
2017,07,19,11,00,20.10
2017,07,19,11,01,20.20
2017,07,19,11,02,20.20
2017,07,19,11,03,20.20
2017,07,19,11,04,20.20
2017,07,19,11,05,20.30
2017,07,19,11,06,20.30
2017,07,19,11,07,20.40
2017,07,19,11,08,20.40
2017,07,19,11,09,20.40
2017,07,19,11,10,20.40
2017,07,19,11,11,20.40
2017,07,19,11,12,20.50
2017,07,19,11,13,20.50
2017,07,19,11,14,20.60
2017,07,19,11,15,20.60
2017,07,19,11,16,20.60
2017,07,19,11,17,20.60
2017,07,19,11,18,20.70
2017,07,19,11,19,20.70
2017,07,19,11,20,20.70
2017,07,19,11,21,20.60
2017,07,19,11,22,20.60
2017,07,19,11,23,20.70
2017,07,19,11,24,20.70
2017,07,19,11,25,20.70
2017,07,19,11,26,20.70
2017,07,19,11,27,20.80
2017,07,19,11,28,20.80
2017,07,19,11,29,20.80
2017,07,19,11,30,20.80
2017,07,19,11,31,20.80
2017,07,19,11,32,20.90
2017,07,19,11,33,20.90
2017,07,19,11,34,21.00
2017,07,19,11,35,21.00
2017,07,19,11,36,21.00
2017,07,19,11,37,21.10
2017,07,19,11,38,21.10
2017,07,19,11,39,21.20
2017,07,19,11,40,21.20
2017,07,19,11,41,21.30
2017,07,19,11,42,21.30
2017,07,19,11,43,21.30
2017,07,19,11,44,21.40
2017,07,19,11,45,21.50
2017,07,19,11,46,21.60
2017,07,19,11,47,21.60
2017,07,19,11,48,21.70
2017,07,19,11,49,21.60
2017,07,19,11,50,21.60
2017,07,19,11,51,21.60
2017,07,19,11,52,21.70
2017,07,19,11,53,21.80
2017,07,19,11,54,21.80
2017,07,19,11,55,21.90
2017,07,19,11,56,21.80
2017,07,19,11,57,21.80
2017,07,19,11,58,21.80
2017,07,19,11,59,21.70
2017,07,19,12,00,21.60
2017,07,19,12,01,21.50
2017,07,19,12,02,21.50
2017,07,19,12,03,21.40
2017,07,19,12,04,21.40
2017,07,19,12,05,21.40
2017,07,19,12,06,21.50
2017,07,19,12,07,21.50
2017,07,19,12,08,21.60
2017,07,19,12,09,21.60
2017,07,19,12,10,21.60
2017,07,19,12,11,21.50
2017,07,19,12,12,21.40
2017,07,19,12,13,21.40
2017,07,19,12,14,21.40
2017,07,19,12,15,21.40
2017,07,19,12,16,21.40
2017,07,19,12,17,21.50
2017,07,19,12,18,21.60
2017,07,19,12,19,21.60
2017,07,19,12,20,21.60
2017,07,19,12,21,21.60
2017,07,19,12,22,21.60
2017,07,19,12,23,21.60
2017,07,19,12,24,21.60
2017,07,19,12,25,21.60
2017,07,19,12,26,21.60
2017,07,19,12,27,21.60
2017,07,19,12,28,21.60
2017,07,19,12,29,21.70
2017,07,19,12,30,21.70
2017,07,19,12,31,21.80
2017,07,19,12,32,21.80
2017,07,19,12,33,21.80
2017,07,19,12,34,21.90
2017,07,19,12,35,21.90
2017,07,19,12,36,22.00
2017,07,19,12,37,22.00
2017,07,19,12,38,22.10
2017,07,19,12,39,22.20
2017,07,19,12,40,22.30
2017,07,19,12,41,22.30
2017,07,19,12,42,22.40
2017,07,19,12,43,22.40
2017,07,19,12,44,22.50
2017,07,19,12,45,22.60
2017,07,19,12,46,22.60
2017,07,19,12,47,22.60
2017,07,19,12,48,22.60
2017,07,19,12,49,22.60
2017,07,19,12,50,22.60
2017,07,19,12,51,22.60
2017,07,19,12,52,22.60
2017,07,19,12,53,22.60
2017,07,19,12,54,22.60
2017,07,19,12,55,22.50
2017,07,19,12,56,22.50
2017,07,19,12,57,22.40
2017,07,19,12,58,22.40
2017,07,19,12,59,22.40
2017,07,19,13,00,22.40
2017,07,19,13,01,22.50
2017,07,19,13,02,22.50
2017,07,19,13,03,22.50
2017,07,19,13,04,22.40
2017,07,19,13,05,22.40
2017,07,19,13,06,22.30
2017,07,19,13,07,22.30
2017,07,19,13,08,22.30
2017,07,19,13,09,22.30
2017,07,19,13,10,22.20
2017,07,19,13,11,22.20
2017,07,19,13,12,22.30
2017,07,19,13,13,22.40
2017,07,19,13,14,22.50
2017,07,19,13,15,22.50
2017,07,19,13,16,22.60
2017,07,19,13,17,22.60
2017,07,19,13,18,22.70
2017,07,19,13,19,22.60
2017,07,19,13,20,22.50
2017,07,19,13,21,22.50
2017,07,19,13,22,22.40
2017,07,19,13,23,22.30
2017,07,19,13,24,22.20
2017,07,19,13,25,22.10
2017,07,19,13,26,22.10
2017,07,19,13,27,22.20
2017,07,19,13,28,22.20
2017,07,19,13,29,22.20
2017,07,19,13,30,22.30
2017,07,19,13,31,22.30
2017,07,19,13,32,22.40
2017,07,19,13,33,22.40
2017,07,19,13,34,22.40
2017,07,19,13,35,22.50
2017,07,19,13,36,22.40
2017,07,19,13,37,22.50
2017,07,19,13,38,22.50
2017,07,19,13,39,22.50
2017,07,19,13,40,22.40
2017,07,19,13,41,22.40
2017,07,19,13,42,22.30
2017,07,19,13,43,22.30
2017,07,19,13,44,22.30
2017,07,19,13,45,22.20
2017,07,19,13,46,22.20
2017,07,19,13,47,22.20
2017,07,19,13,48,22.20
2017,07,19,13,49,22.20
2017,07,19,13,50,22.30
2017,07,19,13,51,22.30
2017,07,19,13,52,22.30
2017,07,19,13,53,22.30
2017,07,19,13,54,22.40
2017,07,19,13,55,22.40
2017,07,19,13,56,22.50
2017,07,19,13,57,22.50
2017,07,19,13,58,22.60
2017,07,19,13,59,22.70
2017,07,19,14,00,22.70
2017,07,19,14,01,22.70
2017,07,19,14,02,22.70
2017,07,19,14,03,22.70
2017,07,19,14,04,22.70
2017,07,19,14,05,22.60
2017,07,19,14,06,22.60
2017,07,19,14,07,22.50
2017,07,19,14,08,22.50
2017,07,19,14,09,22.50
2017,07,19,14,10,22.50
2017,07,19,14,11,22.50
2017,07,19,14,12,22.50
2017,07,19,14,13,22.60
2017,07,19,14,14,22.70
2017,07,19,14,15,22.80
2017,07,19,14,16,22.90
2017,07,19,14,17,23.00
2017,07,19,14,18,23.00
2017,07,19,14,19,23.00
2017,07,19,14,20,23.00
2017,07,19,14,21,22.90
2017,07,19,14,22,22.80
2017,07,19,14,23,22.70
2017,07,19,14,24,22.60
2017,07,19,14,25,22.60
2017,07,19,14,26,22.60
2017,07,19,14,27,22.60
2017,07,19,14,28,22.60
2017,07,19,14,29,22.70
2017,07,19,14,30,22.70
2017,07,19,14,31,22.70
2017,07,19,14,32,22.80
2017,07,19,14,33,22.80
2017,07,19,14,34,22.80
2017,07,19,14,35,22.80
2017,07,19,14,36,22.80
2017,07,19,14,37,22.80
2017,07,19,14,38,22.80
2017,07,19,14,39,22.70
2017,07,19,14,40,22.80
2017,07,19,14,41,22.80
2017,07,19,14,42,22.80
2017,07,19,14,43,22.70
2017,07,19,14,44,22.60
2017,07,19,14,45,22.60
2017,07,19,14,46,22.50
2017,07,19,14,47,22.40
2017,07,19,14,48,22.40
2017,07,19,14,49,22.40
2017,07,19,14,50,22.50
2017,07,19,14,51,22.50
2017,07,19,14,52,22.50
2017,07,19,14,53,22.60
2017,07,19,14,54,22.70
2017,07,19,14,55,22.70
2017,07,19,14,56,22.80
2017,07,19,14,57,22.70
2017,07,19,14,58,22.70
2017,07,19,14,59,22.70
2017,07,19,15,00,22.70
2017,07,19,15,01,22.70
2017,07,19,15,02,22.70
2017,07,19,15,03,22.70
2017,07,19,15,04,22.80
2017,07,19,15,05,22.80
2017,07,19,15,06,22.80
2017,07,19,15,07,22.90
2017,07,19,15,08,22.90
2017,07,19,15,09,22.90
2017,07,19,15,10,23.00
2017,07,19,15,11,23.10
2017,07,19,15,12,23.10
2017,07,19,15,13,23.20
2017,07,19,15,14,23.20
2017,07,19,15,15,23.20
2017,07,19,15,16,23.10
2017,07,19,15,17,23.10
2017,07,19,15,18,23.10
2017,07,19,15,19,23.00
2017,07,19,15,20,23.10
2017,07,19,15,21,23.10
2017,07,19,15,22,23.10
2017,07,19,15,23,23.10
2017,07,19,15,24,23.20
2017,07,19,15,25,23.20
2017,07,19,15,26,23.10
2017,07,19,15,27,23.20
2017,07,19,15,28,23.20
2017,07,19,15,29,23.20
2017,07,19,15,30,23.20
2017,07,19,15,31,23.20
2017,07,19,15,32,23.20
2017,07,19,15,33,23.20
2017,07,19,15,34,23.20
2017,07,19,15,35,23.20
2017,07,19,15,36,23.30
2017,07,19,15,37,23.30
2017,07,19,15,38,23.30
2017,07,19,15,39,23.30
2017,07,19,15,40,23.30
2017,07,19,15,41,23.30
2017,07,19,15,42,23.30
2017,07,19,15,43,23.30
2017,07,19,15,44,23.30
2017,07,19,15,45,23.30
2017,07,19,15,46,23.20
2017,07,19,15,47,23.20
2017,07,19,15,48,23.20
2017,07,19,15,49,23.10
2017,07,19,15,50,23.10
2017,07,19,15,51,23.10
2017,07,19,15,52,23.10
2017,07,19,15,53,23.00
2017,07,19,15,54,23.00
2017,07,19,15,55,23.00
2017,07,19,15,56,23.00
2017,07,19,15,57,22.90
2017,07,19,15,58,22.90
2017,07,19,15,59,23.00
2017,07,19,16,00,23.00
2017,07,19,16,01,23.00
2017,07,19,16,02,22.90
2017,07,19,16,03,22.90
2017,07,19,16,04,22.80
2017,07,19,16,05,22.80
2017,07,19,16,06,22.90
2017,07,19,16,07,22.90
2017,07,19,16,08,23.00
2017,07,19,16,09,23.10
2017,07,19,16,10,23.10
2017,07,19,16,11,23.10
2017,07,19,16,12,23.20
2017,07,19,16,13,23.20
2017,07,19,16,14,23.10
2017,07,19,16,15,23.10
2017,07,19,16,16,23.00
2017,07,19,16,17,23.00
2017,07,19,16,18,23.10
2017,07,19,16,19,23.10
2017,07,19,16,20,23.00
2017,07,19,16,21,23.00
2017,07,19,16,22,23.00
2017,07,19,16,23,23.00
2017,07,19,16,24,23.00
2017,07,19,16,25,23.00
2017,07,19,16,26,23.10
2017,07,19,16,27,23.10
2017,07,19,16,28,23.10
2017,07,19,16,29,23.20
2017,07,19,16,30,23.20
2017,07,19,16,31,23.20
2017,07,19,16,32,23.20
2017,07,19,16,33,23.20
2017,07,19,16,34,23.20
2017,07,19,16,35,23.20
2017,07,19,16,36,23.20
2017,07,19,16,37,23.20
2017,07,19,16,38,23.10
2017,07,19,16,39,23.00
2017,07,19,16,40,22.90
2017,07,19,16,41,22.80
2017,07,19,16,42,22.80
2017,07,19,16,43,22.70
2017,07,19,16,44,22.70
2017,07,19,16,45,22.70
2017,07,19,16,46,22.70
2017,07,19,16,47,22.70
2017,07,19,16,48,22.70
2017,07,19,16,49,22.80
2017,07,19,16,50,22.80
2017,07,19,16,51,22.80
2017,07,19,16,52,22.90
2017,07,19,16,53,22.90
2017,07,19,16,54,22.90
2017,07,19,16,55,23.00
2017,07,19,16,56,23.10
2017,07,19,16,57,23.10
2017,07,19,16,58,23.10
2017,07,19,16,59,23.20
2017,07,19,17,00,23.10
2017,07,19,17,01,23.10
2017,07,19,17,02,23.10
2017,07,19,17,03,23.10
2017,07,19,17,04,23.10
2017,07,19,17,05,23.00
2017,07,19,17,06,23.10
2017,07,19,17,07,23.10
2017,07,19,17,08,23.20
2017,07,19,17,09,23.20
2017,07,19,17,10,23.20
2017,07,19,17,11,23.30
2017,07,19,17,12,23.30
2017,07,19,17,13,23.30
2017,07,19,17,14,23.30
2017,07,19,17,15,23.30
2017,07,19,17,16,23.30
2017,07,19,17,17,23.30
2017,07,19,17,18,23.30
2017,07,19,17,19,23.30